Location: Caltech
(34.1382°N, 118.1253°W)
Time: 16:53:04
(UTC-07:00)

RS-15 - Visible Passes

Search period start: 28 April 2016 00:00
Search period end: 08 May 2016 00:00
Orbit: 1884 x 2161 km, 64.8° (Epoch: 27 April)

Date Brightness Start Highest point End Pass type
(mag) Time Alt. Az. Time Alt. Az. Time Alt. Az.
28 Apr 9.9 02:06:33 10° WNW 02:13:29 17° NNW 02:20:39 10° NNE visible
28 Apr 10.2 04:28:05 10° NNW 04:33:37 14° NNE 04:39:12 10° NE visible
28 Apr 8.6 21:04:28 20° SE 21:09:45 29° ESE 21:18:58 10° NE visible
28 Apr 8.1 23:11:41 17° SW 23:21:03 69° WNW 23:32:54 10° NNE visible
29 Apr 9.8 01:28:16 10° WNW 01:36:18 21° NNW 01:44:40 10° NNE visible
29 Apr 10.2 03:51:29 10° NNW 03:56:02 12° N 04:00:38 10° NNE visible
29 Apr 8.9 20:27:02 10° SE 20:34:16 20° E 20:41:38 10° ENE visible
29 Apr 7.9 22:33:45 10° SSW 22:44:57 87° WNW 22:56:51 10° NNE visible
30 Apr 9.5 00:50:19 10° W 00:59:20 26° NW 01:08:45 10° NNE visible
30 Apr 10.2 03:14:12 10° NNW 03:18:24 12° N 03:22:38 10° NNE visible
30 Apr 10.1 05:28:22 10° NNW 05:37:46 24° NE 05:47:10 10° E visible
30 Apr 9.2 19:54:53 10° ESE 19:58:52 12° E 20:02:53 10° ENE visible
30 Apr 7.9 21:57:56 10° SSW 22:09:00 74° ESE 22:20:44 10° NNE visible
01 May 9.3 00:12:43 10° WSW 00:22:31 32° NW 00:32:51 10° NNE visible
01 May 10.2 02:36:07 10° NNW 02:40:46 13° N 02:45:29 10° NNE visible
01 May 10.2 04:52:27 10° NNW 05:00:42 20° NNE 05:08:59 10° ENE visible
01 May 8.0 21:22:26 10° S 21:33:10 57° ESE 21:44:27 10° NE visible
01 May 9.0 23:35:30 10° WSW 23:45:55 41° NW 23:56:57 10° NNE visible
02 May 10.1 01:57:35 10° NW 02:03:13 14° NNW 02:08:59 10° NNE visible
02 May 10.3 04:16:26 10° NNW 04:23:26 16° NNE 04:30:28 10° ENE visible
02 May 8.2 20:47:20 10° S 20:57:26 42° ESE 21:08:00 10° NE visible
02 May 8.6 22:58:38 10° SW 23:09:29 52° NW 23:21:01 10° NNE visible
03 May 10.1 01:19:03 10° WNW 01:25:50 17° NNW 01:32:49 10° NNE visible
03 May 10.3 03:40:16 10° NNW 03:46:00 14° NNE 03:51:46 10° NE visible
03 May 8.5 20:12:42 10° SSE 20:21:49 30° ESE 20:31:16 10° NE visible
03 May 8.3 22:22:06 10° SW 22:33:14 66° WNW 22:45:03 10° NNE visible
04 May 9.9 00:40:43 10° WNW 00:48:37 20° NNW 00:56:49 10° NNE visible
04 May 10.4 03:03:44 10° NNW 03:08:26 13° N 03:13:09 10° NNE visible
04 May 10.0 05:16:23 10° NNW 05:26:55 31° NE 05:37:23 10° ESE visible
04 May 8.0 21:45:54 10° SSW 21:57:06 84° WNW 22:09:01 10° NNE visible
05 May 9.7 00:02:43 10° W 00:11:36 25° NW 00:20:53 10° NNE visible
05 May 10.4 02:26:34 10° NNW 02:30:47 12° N 02:35:03 10° NNE visible
05 May 10.2 04:40:30 10° NNW 04:50:04 25° NE 04:59:37 10° E visible
05 May 7.9 21:10:01 10° SSW 21:21:07 77° ESE 21:32:54 10° NNE visible
05 May 9.4 23:25:04 10° W 23:34:47 31° NW 23:45:00 10° NNE visible
06 May 10.3 01:48:35 10° NNW 01:53:09 12° N 01:57:47 10° NNE visible
06 May 10.3 04:04:35 10° NNW 04:13:01 20° NNE 04:21:29 10° ENE visible
06 May 8.0 20:34:28 10° S 20:45:16 59° ESE 20:56:39 10° NE visible
06 May 9.1 22:47:48 10° WSW 22:58:08 39° NW 23:09:05 10° NNE visible
07 May 10.3 01:10:06 10° NW 01:15:35 14° NNW 01:21:11 10° NNE visible
07 May 10.4 03:28:35 10° NNW 03:35:47 17° NNE 03:43:01 10° ENE visible
07 May 8.3 19:59:18 10° S 20:09:32 44° ESE 20:20:15 10° NE visible
07 May 8.8 22:10:53 10° SW 22:21:41 50° NW 22:33:10 10° NNE visible
